Location: Newark
(11.4947°N, 0.1467°E)
Time: 08:42:32
(UTC+00:00)

Envisat - Pass Details

Date: 15 November 2019
Orbit: 764 x 766 km, 98.1° (Epoch: 10 December)

Event Time Altitude Azimuth Distance (km) Brightness Sun altitude
Rises 19:35:18 0° 211° (SSW) 3,223 6.9 -29.8°
Reaches altitude 10° 19:39:47 10° 249° (WSW) 2,297 6.3 -30.9°
Maximum altitude 19:40:51 11° 261° (W) 2,254 6.3 -31.1°
Drops below altitude 10° 19:41:55 10° 273° (W) 2,297 6.3 -31.4°
Sets 19:46:26 0° 311° (NW) 3,223 6.6 -32.4°
